Location: Unspecified
(0.0000°N, 0.0000°E)
Time: 04:50:16
(UTC+00:00)

Explorer 11/Cluster Stage 4 - Visible Passes

Search period start: 27 April 2018 00:00
Search period end: 07 May 2018 00:00
Orbit: 467 x 1261 km, 28.8° (Epoch: 26 April)

Date Brightness Start Highest point End Pass type
(mag) Time Alt. Az. Time Alt. Az. Time Alt. Az.
27 Apr 8.5 03:05:45 37° ESE 03:05:45 37° ESE 03:10:45 10° E visible
27 Apr 7.5 04:47:56 24° WSW 04:52:55 60° NNW 04:59:46 10° NE visible
28 Apr 8.6 02:56:09 35° E 02:56:09 35° E 03:00:33 10° ENE visible
28 Apr 7.7 04:38:19 28° W 04:42:24 51° NNW 04:49:20 10° NE visible
29 Apr 8.9 02:46:29 31° E 02:46:29 31° E 02:50:16 10° ENE visible
29 Apr 7.9 04:28:39 31° W 04:31:53 44° NNW 04:38:51 10° NE visible
30 Apr 9.1 02:36:46 27° ENE 02:36:46 27° ENE 02:39:54 10° ENE visible
30 Apr 8.2 04:18:56 32° WNW 04:21:22 38° NNW 04:28:18 10° NE visible
01 May 9.3 02:27:00 22° ENE 02:27:00 22° ENE 02:29:29 10° ENE visible
01 May 8.3 04:09:09 30° NW 04:10:53 33° NNW 04:17:41 10° NNE visible
02 May 9.6 02:17:10 18° NE 02:17:10 18° NE 02:18:59 10° ENE visible
02 May 8.5 03:59:19 28° NW 04:00:24 29° NNW 04:07:00 10° NNE visible
03 May 9.8 02:07:16 15° NE 02:07:16 15° NE 02:08:26 10° NE visible
03 May 8.7 03:49:26 25° NNW 03:49:57 25° NNW 03:56:16 10° NNE visible
04 May 9.9 01:57:20 12° NE 01:57:20 12° NE 01:57:48 10° NE visible
04 May 8.9 03:39:29 22° NNW 03:39:31 22° NNW 03:45:27 10° NNE visible
05 May 9.1 03:29:29 19° NNW 03:29:29 19° NNW 03:34:35 10° NNE visible
06 May 9.3 03:19:26 16° NNW 03:19:26 16° NNW 03:23:37 10° NNE visible
